Other Public Products
Issued by NWS Charleston, SC

Home | Current Version | Previous Version | Text Only | Print | Product List | Glossary On
Versions: 1 2 3 4 5 6 7 8 9 10 11 12 13 14 15 16 17 18 19 20 21 22 23 24 25 26 27 28 29 30 31 32 33 34 35 36 37 38 39 40 41 42 43 44 45 46 47 48 49 50
000
FPUS82 KCHS 250726
OPUCHS

TEST...KCHS/KSAV Gateway Observations...TEST
National Weather Service Charleston SC
200 AM EST SAT FEB 25 2017

NOTE: "fair" indicates few or no clouds below 12,000 feet with no
significant weather and/or obstructions to visibility.

SCZ050-WAZ558-NCZ071-TXZ119-213-PAZ071-DCZ001-FLZ074-172-MI076-
NYZ176-178-MAZ016-IL014-TNZ027-NJZ106-GAZ044-MD014-250800-
...Gateway Observations for Charleston International...

CITY           SKY/WX    TMP DP  RH WIND       PRES   REMARKS
Chas Airport   CLEAR     58  56  93 CALM      29.82F
Seattle        CLOUDY    40  33  76 CALM      30.24S
Charlotte      PTCLDY    62  55  77 S13       29.78F
Dallas DFW     PTCLDY    46  26  45 N22G28    30.10R
Dallas Love    PTCLDY    47  26  44 N15G24    30.11R
Philladelphia  MOCLDY    58  54  86 S8        29.82F
Wash National  MOCLDY    59  57  93 S12       29.78S
Baltimore      PTCLDY    53  53 100 SE5       29.78S
Miami          FOG       68  67  96 SW6       29.86S VSB 1/4
Detroit        CLOUDY    45  40  82 W21G29    29.53R
Newark         CLOUDY    58  55  90 SE5       29.83F
Laguardia      CLOUDY    54  51  90 S7        29.83F
J F K          FOG       50  50 100 S6        29.86F VSB 1/4
Boston Logan   CLOUDY    54  54 100 S8        29.87
Ft. Lauderdale PTCLDY    70  67  90 W5        29.84F
Chicago O`Hare CLOUDY    32  26  78 W15       29.60S WCI  22
Chicago Midway FLURRIES  33  27  78 W13       29.60F WCI  24
Houston Bush   CLEAR     55  38  52 N8        29.98R
Houston Hobby  CLEAR     58  37  45 N17       29.97R
Nashville      CLOUDY    60  40  47 W12G21    29.76R
Atlanta        PTCLDY    64  55  72 SW7       29.78S

$$

GAZ044-118-TXZ119-213-NCZ071-DCZ001-MDZ014-506-PAZ021-071-NJZ106-
NYZ176-178-MAZ106-OHZ011-021-055-MIZ076-KYZ091-ILZ014-INZ047-
MNZ060-ONZ431-250800-
...Gateway Observations for Savannah International...

CITY           SKY/WX    TMP DP  RH WIND       PRES   REMARKS
Savannah Arpt  CLEAR     60  57  89 SE3       29.82F
Atlanta        PTCLDY    64  55  72 SW7       29.78S
Charlotte      PTCLDY    62  55  77 S13       29.78F
Dallas DFW     PTCLDY    46  26  45 N22G28    30.10R
Houston Bush   CLEAR     55  38  52 N8        29.98R
Wash National  MOCLDY    59  57  93 S12       29.78S
Wash Dulles    CLOUDY    62  56  80 S6        29.76S
Baltimore      PTCLDY    53  53 100 SE5       29.78S
Philadelphia   MOCLDY    58  54  86 S8        29.82F
Newark         CLOUDY    58  55  90 SE5       29.83F
Laguardia      CLOUDY    54  51  90 S7        29.83F
J F K          FOG       50  50 100 S6        29.86F VSB 1/4
Boston         CLOUDY    54  54 100 S8        29.87
Pittsburg      CLOUDY    65  50  58 S10       29.55F
Akron          LGT RAIN  57  53  86 S15       29.56R FOG
Cleveland      RAIN      56  50  80 SW10      29.54S
Cincinnati     MOCLDY    49  42  77 W6        29.65R
Columbus       CLOUDY    52  49  89 W6        29.59F
Detroit        CLOUDY    45  40  82 W21G29    29.53R
Chicago O`Hare CLOUDY    32  26  78 W15       29.60S WCI  22
Minneapolis    CLEAR     19   3  49 N17G29    29.90R WCI   4
Indianapolis   MOCLDY    41  33  73 W12       29.66R
Toronto Canada RAIN      37  36  93 SE10      29.53R FOG     WCI  30

$$




USA.gov is the U.S. government's official web portal to all federal, state and local government web resources and services.